TimeCDT,TemperatureF,Dew PointF,Humidity,Sea Level PressureIn,VisibilityMPH,Wind Direction,Wind SpeedMPH,Gust SpeedMPH,PrecipitationIn,Events,Conditions,WindDirDegrees,DateUTC
12:15 AM,48.2,44.6,87,29.88,10.0,ENE,17.3,25.3,0.02,Rain,Rain,70,2013-10-05 05:15:00
12:35 AM,46.4,44.6,93,29.89,10.0,ENE,15.0,24.2,0.05,Rain,Light Rain,60,2013-10-05 05:35:00
12:52 AM,46.4,44.6,93,29.91,10.0,East,13.8,19.6,0.17,Rain-Thunderstorm,Heavy Thunderstorms and Rain,80,2013-10-05 05:52:00
1:15 AM,46.4,44.6,93,29.90,10.0,ENE,15.0,24.2,0.02,Rain-Thunderstorm,Light Thunderstorms and Rain,60,2013-10-05 06:15:00
1:35 AM,46.4,44.6,93,29.90,10.0,ENE,13.8,21.9,0.02,,Overcast,60,2013-10-05 06:35:00
1:53 AM,46.4,44.6,93,29.89,10.0,NE,11.5,16.1,0.02,,Overcast,50,2013-10-05 06:53:00
2:15 AM,46.4,44.6,93,29.89,10.0,ENE,11.5,20.7,N/A,,Overcast,60,2013-10-05 07:15:00
2:34 AM,46.4,44.6,93,29.88,10.0,ENE,12.7,19.6,N/A,,Overcast,60,2013-10-05 07:34:00
2:52 AM,46.4,44.6,93,29.87,10.0,ENE,13.8,19.6,N/A,,Overcast,70,2013-10-05 07:52:00
3:14 AM,46.4,46.4,100,29.86,4.0,ENE,13.8,20.7,N/A,,Overcast,70,2013-10-05 08:14:00
3:35 AM,46.4,46.4,100,29.86,3.0,ENE,13.8,19.6,N/A,,Overcast,70,2013-10-05 08:35:00
3:53 AM,46.4,46.4,100,-9999,2.5,ENE,12.7,20.7,N/A,Rain,Light Rain,70,2013-10-05 08:53:00
4:15 AM,46.4,46.4,100,29.84,3.0,ENE,15.0,21.9,N/A,Rain,Light Rain,70,2013-10-05 09:15:00
4:35 AM,46.4,46.4,100,29.83,3.0,Calm,Calm,-,N/A,Rain,Light Rain,70,2013-10-05 09:35:00
4:53 AM,46.4,46.4,100,29.82,3.0,ENE,16.1,27.6,N/A,,Overcast,70,2013-10-05 09:53:00
5:14 AM,46.4,46.4,100,29.83,2.5,ENE,13.8,24.2,N/A,,Overcast,70,2013-10-05 10:14:00
5:34 AM,46.4,46.4,100,29.83,3.0,ENE,12.7,20.7,N/A,,Overcast,70,2013-10-05 10:34:00
5:53 AM,46.4,46.4,100,29.82,2.5,ENE,16.1,23.0,N/A,,Overcast,70,2013-10-05 10:53:00
6:15 AM,46.4,46.4,100,29.81,2.0,ENE,16.1,23.0,N/A,Rain,Light Rain,60,2013-10-05 11:15:00
6:35 AM,48.2,46.4,93,29.80,2.0,ENE,16.1,21.9,N/A,Rain,Light Rain,70,2013-10-05 11:35:00
6:53 AM,48.2,46.4,93,29.80,2.5,ENE,13.8,21.9,N/A,Rain,Light Rain,70,2013-10-05 11:53:00
7:15 AM,48.2,46.4,93,29.80,2.5,ENE,16.1,19.6,N/A,,Overcast,70,2013-10-05 12:15:00
7:35 AM,48.2,46.4,93,29.80,2.0,ENE,16.1,21.9,N/A,,Overcast,70,2013-10-05 12:35:00
7:52 AM,48.2,46.4,93,29.80,1.5,East,16.1,21.9,N/A,,Drizzle,80,2013-10-05 12:52:00
8:15 AM,48.2,46.4,93,29.81,1.5,ENE,12.7,18.4,N/A,Rain,Rain,70,2013-10-05 13:15:00
8:35 AM,48.2,46.4,93,29.81,2.0,East,12.7,20.7,N/A,Rain,Light Rain,80,2013-10-05 13:35:00
8:52 AM,48.2,46.4,93,29.80,1.2,ENE,13.8,17.3,N/A,,Drizzle,70,2013-10-05 13:52:00
9:15 AM,48.2,48.2,100,29.81,1.5,East,13.8,23.0,N/A,,Light Drizzle,80,2013-10-05 14:15:00
9:35 AM,48.2,48.2,100,29.82,1.5,East,12.7,23.0,N/A,Rain,Light Rain,80,2013-10-05 14:35:00
9:53 AM,48.2,48.2,100,29.82,1.2,East,12.7,20.7,N/A,,Drizzle,80,2013-10-05 14:53:00
10:15 AM,48.2,48.2,100,29.82,1.5,ENE,13.8,18.4,N/A,Rain,Rain,70,2013-10-05 15:15:00
10:35 AM,48.2,48.2,100,29.82,2.0,ENE,12.7,19.6,N/A,Rain,Light Rain,70,2013-10-05 15:35:00
10:53 AM,48.2,48.2,100,29.81,2.5,ENE,16.1,21.9,N/A,,Overcast,70,2013-10-05 15:53:00
11:15 AM,50.0,48.2,94,29.81,3.0,East,15.0,23.0,N/A,,Overcast,80,2013-10-05 16:15:00
11:35 AM,50.0,48.2,94,29.80,4.0,East,16.1,24.2,N/A,,Overcast,80,2013-10-05 16:35:00
11:52 AM,50.0,48.2,94,29.80,5.0,East,13.8,21.9,N/A,,Overcast,90,2013-10-05 16:52:00
12:15 PM,50.0,48.2,94,29.81,7.0,East,13.8,20.7,N/A,,Overcast,90,2013-10-05 17:15:00
12:35 PM,51.8,48.2,88,29.81,4.0,ENE,15.0,23.0,N/A,,Overcast,70,2013-10-05 17:35:00
12:52 PM,51.8,48.2,88,29.80,7.0,East,15.0,23.0,N/A,,Overcast,80,2013-10-05 17:52:00
1:14 PM,51.8,48.2,88,29.79,5.0,East,15.0,24.2,N/A,,Overcast,80,2013-10-05 18:14:00
1:35 PM,51.8,50.0,94,29.78,3.0,East,12.7,24.2,N/A,,Overcast,80,2013-10-05 18:35:00
1:53 PM,51.8,48.2,88,29.77,4.0,ENE,15.0,21.9,N/A,,Overcast,70,2013-10-05 18:53:00
2:15 PM,51.8,50.0,94,29.77,5.0,East,12.7,24.2,N/A,,Overcast,80,2013-10-05 19:15:00
2:35 PM,51.8,50.0,94,29.78,3.0,East,17.3,24.2,N/A,,Overcast,80,2013-10-05 19:35:00
2:53 PM,51.8,48.2,88,29.77,2.5,East,15.0,21.9,N/A,,Overcast,90,2013-10-05 19:53:00
3:15 PM,51.8,50.0,94,29.78,1.8,East,9.2,-,N/A,Rain,Rain,80,2013-10-05 20:15:00
3:34 PM,51.8,50.0,94,29.78,1.5,East,9.2,-,N/A,Rain,Light Rain,80,2013-10-05 20:34:00
3:52 PM,51.8,50.0,94,29.78,1.5,ENE,9.2,-,N/A,Rain,Light Rain,70,2013-10-05 20:52:00
4:14 PM,50.0,48.2,94,29.78,1.2,East,5.8,-,N/A,Rain,Rain,80,2013-10-05 21:14:00
4:34 PM,50.0,48.2,94,29.78,1.5,ENE,12.7,18.4,N/A,Rain,Light Rain,70,2013-10-05 21:34:00
4:53 PM,50.0,48.2,94,29.78,3.0,East,8.1,17.3,N/A,,Overcast,80,2013-10-05 21:53:00
5:14 PM,50.0,48.2,94,29.78,10.0,ENE,8.1,-,N/A,Rain,Light Rain,70,2013-10-05 22:14:00
5:34 PM,50.0,48.2,94,29.77,10.0,ENE,10.4,-,0.01,Rain,Light Rain,70,2013-10-05 22:34:00
5:53 PM,50.0,48.2,94,29.78,10.0,East,3.5,-,0.01,Rain,Light Rain,90,2013-10-05 22:53:00
6:15 PM,50.0,48.2,94,29.79,10.0,East,6.9,-,N/A,Rain,Rain,90,2013-10-05 23:15:00
6:34 PM,50.0,48.2,94,29.78,10.0,ENE,5.8,-,0.01,Rain,Rain,70,2013-10-05 23:34:00
6:53 PM,50.0,48.2,94,29.79,10.0,ENE,5.8,-,0.03,Rain,Rain,60,2013-10-05 23:53:00
7:15 PM,50.0,48.2,94,29.79,10.0,NE,4.6,-,0.02,Rain,Rain,40,2013-10-06 00:15:00
7:35 PM,48.2,48.2,100,29.79,10.0,NE,6.9,-,0.06,Rain,Rain,40,2013-10-06 00:35:00
7:53 PM,48.2,48.2,100,29.80,10.0,NE,5.8,-,0.07,Rain,Rain,50,2013-10-06 00:53:00
8:15 PM,48.2,48.2,100,29.80,10.0,NE,6.9,-,0.04,Rain,Rain,50,2013-10-06 01:15:00
8:35 PM,48.2,48.2,100,29.81,10.0,ENE,8.1,-,0.10,Rain,Rain,60,2013-10-06 01:35:00
8:53 PM,48.2,46.4,93,29.78,10.0,NNE,11.5,-,0.12,Rain,Rain,30,2013-10-06 01:53:00
9:15 PM,48.2,46.4,93,29.78,10.0,NNE,12.7,18.4,0.04,Rain,Light Rain,30,2013-10-06 02:15:00
9:35 PM,48.2,46.4,93,29.76,10.0,NNE,12.7,19.6,0.05,Rain,Light Rain,30,2013-10-06 02:35:00
9:53 PM,46.4,46.4,100,29.77,10.0,NE,4.6,20.7,0.06,Rain,Light Rain,50,2013-10-06 02:53:00
10:15 PM,46.4,46.4,100,29.78,10.0,ENE,6.9,-,N/A,Rain,Light Rain,60,2013-10-06 03:15:00
10:35 PM,46.4,46.4,100,29.78,10.0,ENE,6.9,-,N/A,,Light Drizzle,60,2013-10-06 03:35:00
10:53 PM,46.4,46.4,100,29.78,10.0,NE,5.8,-,N/A,,Overcast,40,2013-10-06 03:53:00
11:15 PM,46.4,46.4,100,29.77,10.0,NE,3.5,-,N/A,,Overcast,40,2013-10-06 04:15:00
11:35 PM,46.4,46.4,100,29.77,10.0,NE,8.1,-,N/A,,Overcast,40,2013-10-06 04:35:00
11:53 PM,46.4,46.4,100,29.78,7.0,NE,5.8,-,N/A,,Overcast,40,2013-10-06 04:53:00